Location: Henham
(51.9333°N, 0.2500°E)
Time: 10:18:27
(UTC+00:00)

Cosmos 2082 Rocket - Pass Details

Date: 23 October 2019
Orbit: 832 x 854 km, 71.0° (Epoch: 20 November)

Event Time Altitude Azimuth Distance (km) Brightness Sun altitude
Rises 17:25:57 0° 329° (NNW) 3,436 5.7 -6.4°
Reaches altitude 10° 17:28:27 10° 333° (NNW) 2,495 4.9 -6.7°
Maximum altitude 17:34:10 67° 56° (NE) 923 2.2 -7.6°
Drops below altitude 10° 17:39:49 10° 139° (SE) 2,468 4.3 -8.5°
Sets 17:42:16 0° 142° (SE) 3,396 5.0 -8.9°
